When you browse on this site, cookies collect data to enhance your experience and personalize the content and advertising you see.
Visit our Privacy Policy to learn more. By continuing to use the site, you agree to this use of cookies and data.
  • In Sweden
  • List of Countries
  • For 7 days
  • Water Temperature
  • Weather Map
  • Weather Widgets
  • user-avatar
    Login

    Hourly Weather Shillong

    Today, 7 April, Tuesday

    Time Temperature Precipitation Wind Pressure Humidity
    00:00 +15°C° 0 mm 1 mps 631 mmHg 38%
    01:00 +15°C° 0 mm 1 mps 630 mmHg 37%
    02:00 +15°C° 0 mm 2 mps 630 mmHg 37%
    03:00 +15°C° 0 mm 2 mps 630 mmHg 37%
    04:00 +15°C° 0 mm 2 mps 630 mmHg 39%
    05:00 +15°C° 0 mm 2 mps 630 mmHg 41%
    06:00 +15°C° 0 mm 1 mps 631 mmHg 48%
    07:00 +19°C° 0 mm 1 mps 632 mmHg 42%
    08:00 +20°C° 0 mm 2 mps 633 mmHg 35%
    09:00 +24°C° 0 mm 3 mps 634 mmHg 28%
    10:00 +25°C° 0 mm 3 mps 634 mmHg 27%
    11:00 +26°C° 0 mm 3 mps 634 mmHg 25%
    12:00 +27°C° 0 mm 4 mps 634 mmHg 24%
    13:00 +27°C° 0 mm 4 mps 634 mmHg 24%
    14:00 +27°C° 0 mm 4 mps 633 mmHg 25%
    15:00 +27°C° 0 mm 4 mps 632 mmHg 26%
    16:00 +25°C° 0 mm 3 mps 631 mmHg 28%
    17:00 +23°C° 0 mm 2 mps 630 mmHg 31%
    18:00 +20°C° 0 mm 1 mps 631 mmHg 37%
    19:00 +20°C° 0 mm 1 mps 631 mmHg 35%
    20:00 +18°C° 0 mm 2 mps 631 mmHg 33%
    21:00 +17°C° 0 mm 2 mps 631 mmHg 30%
    22:00 +17°C° 0 mm 2 mps 631 mmHg 28%
    23:00 +17°C° 0 mm 2 mps 631 mmHg 26%

    Tomorrow, 8 April, Wednesday

    Time Temperature Precipitation Wind Pressure Humidity
    00:00 +16°C° 0 mm 2 mps 631 mmHg 24%
    01:00 +16°C° 0 mm 2 mps 630 mmHg 29%
    02:00 +16°C° 0 mm 2 mps 630 mmHg 33%
    03:00 +15°C° 0 mm 2 mps 630 mmHg 37%
    04:00 +15°C° 0 mm 2 mps 630 mmHg 46%
    05:00 +15°C° 0 mm 2 mps 630 mmHg 54%
    06:00 +15°C° 0 mm 2 mps 631 mmHg 63%
    07:00 +18°C° 0 mm 2 mps 632 mmHg 51%
    08:00 +21°C° 0 mm 2 mps 633 mmHg 40%
    09:00 +25°C° 0 mm 2 mps 635 mmHg 28%
    10:00 +26°C° 0 mm 3 mps 635 mmHg 26%
    11:00 +27°C° 0 mm 3 mps 635 mmHg 23%
    12:00 +28°C° 0 mm 4 mps 635 mmHg 20%
    13:00 +28°C° 0 mm 4 mps 634 mmHg 21%
    14:00 +28°C° 0 mm 4 mps 633 mmHg 22%
    15:00 +28°C° 0 mm 4 mps 633 mmHg 23%
    16:00 +26°C° 0 mm 3 mps 632 mmHg 27%
    17:00 +24°C° 0 mm 2 mps 631 mmHg 31%
    18:00 +22°C° 0 mm 1 mps 630 mmHg 35%
    19:00 +21°C° 0 mm 1 mps 631 mmHg 32%
    20:00 +21°C° 0 mm 1 mps 631 mmHg 30%
    21:00 +19°C° 0 mm 2 mps 632 mmHg 27%
    22:00 +18°C° 0 mm 2 mps 632 mmHg 30%
    23:00 +18°C° 0 mm 2 mps 631 mmHg 34%

    Day after tomorrow, 9 April, Thursday

    Time Temperature Precipitation Wind Pressure Humidity
    00:00 +17°C° 0 mm 2 mps 631 mmHg 37%
    01:00 +17°C° 0 mm 2 mps 631 mmHg 45%
    02:00 +17°C° 0 mm 2 mps 631 mmHg 52%
    03:00 +17°C° 0 mm 2 mps 631 mmHg 59%
    04:00 +17°C° 0 mm 2 mps 631 mmHg 62%
    05:00 +16°C° 0 mm 2 mps 631 mmHg 64%
    06:00 +16°C° 0 mm 2 mps 631 mmHg 66%
    07:00 +19°C° 0 mm 2 mps 632 mmHg 56%
    08:00 +23°C° 0 mm 2 mps 634 mmHg 46%
    09:00 +25°C° 0 mm 3 mps 635 mmHg 36%
    10:00 +26°C° 0 mm 3 mps 635 mmHg 32%
    11:00 +27°C° 0 mm 3 mps 635 mmHg 28%
    12:00 +28°C° 0 mm 4 mps 634 mmHg 24%
    13:00 +28°C° 0 mm 4 mps 634 mmHg 25%
    14:00 +28°C° 0 mm 4 mps 633 mmHg 26%
    15:00 +28°C° 0 mm 4 mps 632 mmHg 27%
    16:00 +26°C° 0.2 mm 3 mps 631 mmHg 32%
    17:00 +24°C° 0.2 mm 2 mps 631 mmHg 38%
    18:00 +22°C° 0.2 mm 1 mps 630 mmHg 43%
    19:00 +20°C° 0.1 mm 2 mps 631 mmHg 44%
    20:00 +19°C° 0.1 mm 2 mps 631 mmHg 45%
    21:00 +19°C° 0.1 mm 2 mps 632 mmHg 46%
    22:00 +18°C° 0 mm 2 mps 632 mmHg 49%
    23:00 +18°C° 0 mm 2 mps 632 mmHg 52%

    10 April, Friday

    Time Temperature Precipitation Wind Pressure Humidity
    00:00 +17°C° 0 mm 2 mps 633 mmHg 55%
    01:00 +17°C° 0 mm 2 mps 632 mmHg 57%
    02:00 +16°C° 0 mm 1 mps 632 mmHg 60%
    03:00 +15°C° 0 mm 1 mps 631 mmHg 63%
    04:00 +15°C° 0 mm 1 mps 632 mmHg 63%
    05:00 +15°C° 0 mm 1 mps 632 mmHg 63%
    06:00 +15°C° 0 mm 1 mps 632 mmHg 63%
    07:00 +19°C° 0 mm 1 mps 633 mmHg 55%
    08:00 +21°C° 0 mm 1 mps 635 mmHg 47%
    09:00 +24°C° 0 mm 2 mps 636 mmHg 38%
    10:00 +25°C° 0.1 mm 2 mps 636 mmHg 35%
    11:00 +27°C° 0.1 mm 2 mps 636 mmHg 32%
    12:00 +28°C° 0.1 mm 3 mps 636 mmHg 29%
    13:00 +27°C° 0 mm 3 mps 635 mmHg 29%
    14:00 +27°C° 0 mm 3 mps 634 mmHg 30%
    15:00 +26°C° 0 mm 2 mps 633 mmHg 31%
    16:00 +25°C° 0 mm 2 mps 633 mmHg 33%
    17:00 +24°C° 0 mm 2 mps 632 mmHg 35%
    18:00 +23°C° 0 mm 2 mps 632 mmHg 38%
    19:00 +22°C° 0 mm 1 mps 632 mmHg 39%
    20:00 +21°C° 0 mm 1 mps 632 mmHg 40%
    21:00 +20°C° 0 mm 1 mps 633 mmHg 41%
    22:00 +20°C° 0 mm 1 mps 633 mmHg 42%
    23:00 +19°C° 0 mm 1 mps 633 mmHg 42%

    11 April, Saturday

    Time Temperature Precipitation Wind Pressure Humidity
    00:00 +18°C° 0 mm 2 mps 632 mmHg 43%
    01:00 +18°C° 0 mm 1 mps 632 mmHg 44%
    02:00 +18°C° 0 mm 1 mps 632 mmHg 44%
    03:00 +16°C° 0 mm 1 mps 632 mmHg 45%
    04:00 +16°C° 0 mm 1 mps 632 mmHg 51%
    05:00 +16°C° 0 mm 1 mps 632 mmHg 56%
    06:00 +15°C° 0 mm 1 mps 633 mmHg 62%
    07:00 +19°C° 0 mm 1 mps 634 mmHg 54%
    08:00 +21°C° 0 mm 2 mps 635 mmHg 46%
    09:00 +25°C° 0 mm 2 mps 637 mmHg 39%
    10:00 +26°C° 0.2 mm 2 mps 636 mmHg 39%
    11:00 +26°C° 0.2 mm 2 mps 636 mmHg 38%
    12:00 +26°C° 0.2 mm 2 mps 636 mmHg 38%
    13:00 +25°C° 0.5 mm 3 mps 635 mmHg 43%
    14:00 +24°C° 0.5 mm 3 mps 634 mmHg 47%
    15:00 +24°C° 0.5 mm 3 mps 632 mmHg 52%
    16:00 +21°C° 2.3 mm 2 mps 632 mmHg 61%
    17:00 +19°C° 2.3 mm 2 mps 631 mmHg 70%
    18:00 +18°C° 2.3 mm 1 mps 630 mmHg 79%
    19:00 +16°C° 0.7 mm 1 mps 631 mmHg 79%
    20:00 +16°C° 0.7 mm 2 mps 631 mmHg 80%
    21:00 +16°C° 0.7 mm 2 mps 632 mmHg 80%
    22:00 +15°C° 0.7 mm 2 mps 632 mmHg 82%
    23:00 +15°C° 0.7 mm 2 mps 632 mmHg 84%

    12 April, Sunday

    Time Temperature Precipitation Wind Pressure Humidity
    00:00 +14°C° 0.7 mm 2 mps 632 mmHg 87%
    01:00 +15°C° 0.1 mm 2 mps 631 mmHg 86%
    02:00 +15°C° 0.1 mm 2 mps 631 mmHg 85%
    03:00 +15°C° 0.1 mm 2 mps 631 mmHg 84%
    04:00 +15°C° 0 mm 2 mps 631 mmHg 84%
    05:00 +14°C° 0 mm 2 mps 631 mmHg 84%
    06:00 +14°C° 0 mm 1 mps 631 mmHg 83%
    07:00 +18°C° 0 mm 1 mps 632 mmHg 73%
    08:00 +21°C° 0 mm 1 mps 634 mmHg 63%
    09:00 +23°C° 0 mm 1 mps 635 mmHg 53%
    10:00 +25°C° 0 mm 2 mps 635 mmHg 48%
    11:00 +26°C° 0 mm 3 mps 635 mmHg 42%
    12:00 +27°C° 0 mm 3 mps 635 mmHg 37%
    13:00 +27°C° 0 mm 3 mps 634 mmHg 37%
    14:00 +27°C° 0 mm 3 mps 633 mmHg 37%
    15:00 +26°C° 0 mm 4 mps 632 mmHg 37%
    16:00 +22°C° 0.7 mm 3 mps 631 mmHg 48%
    17:00 +19°C° 0.7 mm 3 mps 630 mmHg 59%
    18:00 +16°C° 0.7 mm 3 mps 629 mmHg 70%
    19:00 +16°C° 0.9 mm 3 mps 630 mmHg 75%
    20:00 +15°C° 0.9 mm 2 mps 631 mmHg 80%
    21:00 +15°C° 0.9 mm 2 mps 631 mmHg 85%
    22:00 +15°C° 0.1 mm 2 mps 631 mmHg 81%
    23:00 +16°C° 0.1 mm 2 mps 631 mmHg 78%
    Show more